星链-1360 (STARLINK-1360 )

导读 | 豆包AI

STARLINK-1360是美国太空探索技术公司Starlink卫星互联网项目的成员,于**2020年4月22日**从美国卡纳维拉尔角发射入轨,属于星链第一代卫星。星链项目旨在为全球提供高速低延迟互联网覆盖,该卫星承担近地轨道星座组网任务,服务地面网络通信与互联网接入,目前已正常运行近6年,是星链全球组网进程中较早部署的组网卫星之一。

基本信息
目录编号:
45588
目录名称:
STARLINK-1360
国际标识:
2020-025BK
轨道中心:
EARTH
卫星名称:
星链-1360
卫星全名:
星链-1360 (STARLINK-1360 )
卫星状态:
已陨落 最后检测时间 2025-12-31
发射日期:
2020-04-22 UTC
国别 :
美国 (US)
星等 :
--
轨道信息
数据来源 国际轨道数据
星历时间: 2025-12-31T11:15:16+0800
轨道信息已过期93天
半长轴: 6579.395km
偏心率: 0.0004946
轨道倾角: 53.028°
近地点辐角 217.341°
升交点赤经 253.654°
平近点角 142.729°
近地点: 198.003km
远地点: 204.513km
周期: 88.519分钟
每日圈数: 16.267615
详细信息
固有亮度:
5
最大亮度:
2.5
卫星平台:
Starlink V1.0
覆盖范围:
全球
运营商:
太空探索技术公司
运营商所在国:
美国
制造商(研发单位):
太空探索技术公司
制造商所在国:
美国
使用方式:
暂无
卫星简介
星链(Starlink)计划是由太空探索技术公司(SpaceX)提出的一个巨型低轨卫星互联网星座项目,计划在2019年至2024年间在太空搭建由约1.2万颗卫星组成的“星链”网络,其中1584颗将部署在地球上空550千米处的近地轨道,并从2020年开始工作。该卫星仍在工作。